Regional Weather Roundup
Issued by NWS

Home | Current Version | Previous Version | Text Only | Print | Product List | Glossary Off
Versions: 1 2 3 4 5 6 7 8 9 10 11 12 13 14 15 16 17 18 19 20 21 22 23 24 25 26 27 28 29 30 31 32 33 34 35 36 37 38 39 40 41 42 43 44 45 46 47 48 49 50

252
ASUS43 KMKX 041421
RWRWI

WISCONSIN REGIONAL WEATHER ROUNDUP
NATIONAL WEATHER SERVICE MILWAUKEE/SULLIVAN WI
800 AM CST SUN DEC 04 2016

NOTE: "FAIR" INDICATES FEW OR NO CLOUDS BELOW 12,000 FEET WITH NO
SIGNIFICANT WEATHER AND/OR OBSTRUCTIONS TO VISIBILITY.

WIZ001-002-006>008-014>016-023>028-041500-
NORTHWEST WISCONSIN

CITY           SKY/WX    TMP DP  RH WIND       PRES   REMARKS
SUPERIOR ARPT  CLOUDY    29  28  96 CALM      29.97F FOG
ASHLAND        LGT SNOW  29  25  85 SE5       30.01F FOG     WCI  24
HAYWARD        LGT SNOW  29  25  85 SE9       29.97F FOG     WCI  20
SIREN          LGT SNOW  30  29  95 SE5       29.93F WCI  25
CUMBERLAND     LGT SNOW  28  28 100 SE7       29.95F VSB 3/4 WCI  21
RICE LAKE      LGT SNOW  30  28  93 SE10G17   29.98F VSB 1   WCI  21
CHETEK         LGT SNOW  30  29  96 SE7       29.97F VSB 3/4 WCI  23
LADYSMITH      LGT SNOW  30  28  94 SE8       30.00F WCI  22
EAU CLAIRE     LGT SNOW  30  29  96 SE8       29.97F VSB 3/4 WCI  22
MENOMONIE      LGT SNOW  31  31  98 E9        29.97F VSB 3/4 WCI  23
NEW RICHMOND   LGT SNOW  31  30  98 SE8       29.93F WCI  23
OSCEOLA        LGT SNOW  32  32 100 SE9       29.96F VSB 1   WCI  24
$$

WIZ003>005-009-010-017-018-041500-
NORTH CENTRAL WISCONSIN

CITY           SKY/WX    TMP DP  RH WIND       PRES   REMARKS
MANITOWISH WTR LGT SNOW  26  26 100 SE6       30.00F WCI  19
ARBOR VITAE    LGT SNOW  28  26  91 S6        30.01F WCI  22
WOODRUFF       LGT SNOW  28  26  91 S6        30.01F WCI  22
RHINELANDER    LGT SNOW  26  25  96 SE5       30.04F FOG     WCI  20
EAGLE RIVER    LGT SNOW  26  22  85 S5        30.03F WCI  20
LAND O LAKES   LGT SNOW  27  23  86 S5        30.04F WCI  21
PHILLIPS       LGT SNOW  27  26  96 SE7       29.99F WCI  19
TOMAHAWK       LGT SNOW  26  24  93 CALM      30.04F
MEDFORD        LGT SNOW  27  25  93 SE7       30.01F WCI  19
MERRILL        LGT SNOW  27  26  96 SE6       30.05F WCI  21
$$

WIZ029-030-035-036-043>047-041500-
CENTRAL WISCONSIN

CITY           SKY/WX    TMP DP  RH WIND       PRES   REMARKS
WAUSAU         LGT SNOW  27  26  96 SE7       30.04F FOG     WCI  19
MOSINEE        LGT SNOW  27  27 100 SE7       30.06F WCI  19
MARSHFIELD     LGT SNOW  29  26  89 SE8       30.01F VSB 1   WCI  21
STEVENS POINT  MIX PCPN  27  27 100 SE6       30.07F WCI  20
WAUPACA        LGT SNOW  31  29  90 CALM      30.11F VSB 1
WAUTOMA        LGT SNOW  30  28  92 SE5       30.10  FOG     WCI  25
WISC RAPIDS    LGT SNOW  29  28  96 SE7       30.06F VSB 1   WCI  22
CAMP DOUGLAS   LGT SNOW  32  28  86 SE9       30.04F VSB 1   WCI  24
$$

WIZ011>013-019>022-031-037>040-048>050-041500-
NORTHEAST WISCONSIN

CITY           SKY/WX    TMP DP  RH WIND       PRES   REMARKS
ANTIGO         LGT SNOW  26  24  96 SE8       30.06F WCI  17
SHAWANO        LGT RAIN  31  28  88 CALM      30.13F
OCONTO         CLOUDY    31  24  75 SW5       30.14F WCI  26
STURGEON BAY   CLOUDY    30  24  78 SW6       30.16F WCI  24
GREEN BAY      LGT SNOW  31  30  96 S8        30.14F FOG     WCI  23
MANITOWOC      LGT SNOW  30  27  88 SW6       30.16F FOG     WCI  24
APPLETON       LGT SNOW  28  28 100 S5        30.11F WCI  23
CLINTONVILLE   LGT SNOW  30  28  93 SE5       30.12F WCI  25
OSHKOSH        LGT SNOW  30  27  88 SE7       30.12F VSB 1   WCI  23
$$

WIZ032>034-041-042-053>061-041500-
SOUTHWEST WISCONSIN

CITY           SKY/WX    TMP DP  RH WIND       PRES   REMARKS
LA CROSSE      LGT SNOW  34  32  92 SE10      30.01S FOG     WCI  26
SPARTA         LGT SNOW  31  30  98 SE7       30.03F WCI  24
VIROQUA        CLOUDY    31  31 100 SE16      30.00F VSB 1   WCI  19
BOSCOBEL       LGT SNOW  33  30  88 CALM      30.06F VSB 3/4
PRAIRIE DU CHI LGT SNOW  32  31  94 E8        30.04S WCI  25
PLATTEVILLE    CLOUDY    31  31 100 SE13      30.06S VSB 3/4 WCI  21
$$

WIZ056-057-062-063-064-067-068-041500-
SOUTH CENTRAL WISCONSIN

CITY           SKY/WX    TMP DP  RH WIND       PRES   REMARKS
REEDSBURG      MIX PCPN  30  30 100 SE5       30.06F VSB 1   WCI  25
BARABOO/DELLS  LGT SNOW  30  29  96 SE6       30.07F WCI  24
LONE ROCK      SNOW      31  29  92 SE8       30.08F VSB 1/4 WCI  23
MINERAL POINT  LGT SNOW  32  32 100 SE8       30.05S VSB 1   WCI  25
MADISON        LGT SNOW  30  28  92 S12       30.10F VSB 1   WCI  20
MIDDLETON      CLOUDY    32  32 100 SE7       30.09F VSB 1   WCI  25
WATERTOWN      LGT SNOW  30  30  98 SE5       30.11F WCI  25
MONROE         LGT SNOW  30  30 100 SE10      30.08F VSB 1   WCI  21
JANESVILLE     LGT SNOW  34  28  80 SE9       30.12F WCI  26
$$

WIZ051-052-058>065-066-070>072-041500-
SOUTHEAST WISCONSIN

CITY           SKY/WX    TMP DP  RH WIND       PRES   REMARKS
MILWAUKEE      CLOUDY    33  26  75 SE3       30.14F
WAUKESHA       CLOUDY    28  25  86 CALM      30.14F
MILWAUKEE/TIMM CLOUDY    30  25  80 CALM      30.15F
RACINE         CLOUDY    32  26  78 CALM      30.16F
BURLINGTON     MOCLDY    31  27  85 CALM      30.13F
KENOSHA        CLOUDY    32  27  81 SE3       30.14F
FOND DU LAC    LGT SNOW  30  27  88 SE7       30.11F FOG     WCI  23
SHEBOYGAN      LGT SNOW  30  26  85 CALM      30.14F FOG
WEST BEND      CLOUDY    30  28  93 CALM      30.13F
JUNEAU         LGT SNOW  29  28  94 SE5       30.12F WCI  24
$$

LSZ147-162-041500-
LAKE SUPERIOR

STATION/POSITION TIME  TEMP    WIND        PRES    WAVE
                       AIR SEA DIR/SP/G            HT/PER
                 (UTC) (F)     (DEG/KT/KT) (MB)    (FT/S)
DEVILS ISLAND    1400   31     150/  6/  8 1017.0F
PORT WING        1340   29     140/  3/  9 1015.9F
SAXON HARBOR     1340   30     180/  3/  5 1016.6F
$$

LMZ867-665-643>646-041500-
LAKE MICHIGAN

STATION/POSITION TIME  TEMP    WIND        PRES    WAVE
                       AIR SEA DIR/SP/G            HT/PER
                 (UTC) (F)     (DEG/KT/KT) (MB)    (FT/S)
CHAMBERS ISLAND  1340   33     210/  3/  7 1020.3F
NORTHPORT PIER   1340   33      CALM  /  5 1021.0S
SISTER BAY       1338   33     190/  9/ 10   N/A
ALGOMA LAKESHORE 1351          260/  6/  8   N/A
KEWAUNEE LAKESHO 1354   32     240/  5/  8 1020.9F
SHEBOYGAN LAKESH 1400   32     210/  5/  6 1021.7F
PORT WASHINGTON  1330   32     240/  3/  4 1022.7S
MILWAUKEE LAKESH 1400   34     170/  4/  5   N/A
S MID LAKE BUOY  1350   37 48  190/  4/  6 1022.1F   0
KENOSHA   LAKESH 1400   33     180/  2/  3 1020.7
$$

TC  - TEMPERATURE IN CELSIUS
VSB - VISIBILITY IN STATUTE MILES
WCI - WIND CHILL INDEX
HX  - HEAT INDEX





USA.gov is the U.S. government's official web portal to all federal, state and local government web resources and services.